{"data":{"norad_id":57057,"epoch":"2026-05-25T02:48:38.204640Z","epoch_age_seconds":71883,"freshness":"FRESH","line1":"1 57057U 23088K   26145.11710885  .00000337  00000+0  21761-4 0  9997","line2":"2 57057  43.0049  38.7861 0001343 268.4209  91.6489 15.27578640162024","mean_motion":15.2757864,"eccentricity":0.0001343,"inclination_deg":43.0049,"raan_deg":38.7861,"arg_perigee_deg":268.4209,"mean_anomaly_deg":91.6489,"bstar":2.1761e-5,"rev_number":16202,"period_min":94.266832639137,"perigee_km":482.13171053232,"apogee_km":483.97462621154,"semimajor_km":6861.1901683719,"source":"CELESTRAK","updated_at":"2026-05-25T13:38:18.209839Z"}}